Year,Month,Day,Hour,Minute,Value (Times are PST for temperature in C)
2014,07,14,00,00,14.30
2014,07,14,00,01,14.30
2014,07,14,00,02,14.30
2014,07,14,00,03,14.30
2014,07,14,00,04,14.30
2014,07,14,00,05,14.20
2014,07,14,00,06,14.20
2014,07,14,00,07,14.20
2014,07,14,00,08,14.20
2014,07,14,00,09,14.20
2014,07,14,00,10,14.20
2014,07,14,00,11,14.20
2014,07,14,00,12,14.20
2014,07,14,00,13,14.10
2014,07,14,00,14,14.10
2014,07,14,00,15,14.10
2014,07,14,00,16,14.10
2014,07,14,00,17,14.10
2014,07,14,00,18,14.10
2014,07,14,00,19,14.10
2014,07,14,00,20,14.10
2014,07,14,00,21,14.10
2014,07,14,00,22,14.10
2014,07,14,00,23,14.10
2014,07,14,00,24,14.10
2014,07,14,00,25,14.10
2014,07,14,00,26,14.10
2014,07,14,00,27,14.10
2014,07,14,00,28,14.10
2014,07,14,00,29,14.10
2014,07,14,00,30,14.10
2014,07,14,00,31,14.10
2014,07,14,00,32,14.10
2014,07,14,00,33,14.10
2014,07,14,00,34,14.10
2014,07,14,00,35,14.10
2014,07,14,00,36,14.10
2014,07,14,00,37,14.10
2014,07,14,00,38,14.10
2014,07,14,00,39,14.10
2014,07,14,00,40,14.10
2014,07,14,00,41,14.10
2014,07,14,00,42,14.10
2014,07,14,00,43,14.10
2014,07,14,00,44,14.10
2014,07,14,00,45,14.10
2014,07,14,00,46,14.10
2014,07,14,00,47,14.10
2014,07,14,00,48,14.10
2014,07,14,00,49,14.10
2014,07,14,00,50,14.10
2014,07,14,00,51,14.00
2014,07,14,00,52,14.00
2014,07,14,00,53,14.00
2014,07,14,00,54,14.00
2014,07,14,00,55,13.90
2014,07,14,00,56,13.90
2014,07,14,00,57,13.90
2014,07,14,00,58,13.90
2014,07,14,00,59,13.90
2014,07,14,01,00,13.90
2014,07,14,01,01,13.90
2014,07,14,01,02,13.90
2014,07,14,01,03,14.00
2014,07,14,01,04,14.00
2014,07,14,01,05,14.00
2014,07,14,01,06,14.00
2014,07,14,01,07,14.10
2014,07,14,01,08,14.10
2014,07,14,01,09,14.10
2014,07,14,01,10,14.10
2014,07,14,01,11,14.10
2014,07,14,01,12,14.10
2014,07,14,01,13,14.20
2014,07,14,01,14,14.20
2014,07,14,01,15,14.20
2014,07,14,01,16,14.20
2014,07,14,01,17,14.30
2014,07,14,01,18,14.30
2014,07,14,01,19,14.30
2014,07,14,01,20,14.30
2014,07,14,01,21,14.40
2014,07,14,01,22,14.40
2014,07,14,01,23,14.50
2014,07,14,01,24,14.50
2014,07,14,01,25,14.60
2014,07,14,01,26,14.60
2014,07,14,01,27,14.70
2014,07,14,01,28,14.70
2014,07,14,01,29,14.80
2014,07,14,01,30,14.80
2014,07,14,01,31,14.80
2014,07,14,01,32,14.90
2014,07,14,01,33,14.90
2014,07,14,01,34,15.00
2014,07,14,01,35,15.00
2014,07,14,01,36,15.10
2014,07,14,01,37,15.10
2014,07,14,01,38,15.20
2014,07,14,01,39,15.20
2014,07,14,01,40,15.20
2014,07,14,01,41,15.20
2014,07,14,01,42,15.30
2014,07,14,01,43,15.30
2014,07,14,01,44,15.30
2014,07,14,01,45,15.30
2014,07,14,01,46,15.30
2014,07,14,01,47,15.30
2014,07,14,01,48,15.30
2014,07,14,01,49,15.30
2014,07,14,01,50,15.40
2014,07,14,01,51,15.40
2014,07,14,01,52,15.40
2014,07,14,01,53,15.40
2014,07,14,01,54,15.40
2014,07,14,01,55,15.30
2014,07,14,01,56,15.30
2014,07,14,01,57,15.30
2014,07,14,01,58,15.30
2014,07,14,01,59,15.30
2014,07,14,02,00,15.30
2014,07,14,02,01,15.30
2014,07,14,02,02,15.30
2014,07,14,02,03,15.30
2014,07,14,02,04,15.40
2014,07,14,02,05,15.40
2014,07,14,02,06,15.40
2014,07,14,02,07,15.30
2014,07,14,02,08,15.30
2014,07,14,02,09,15.20
2014,07,14,02,10,15.10
2014,07,14,02,11,15.00
2014,07,14,02,12,14.90
2014,07,14,02,13,14.90
2014,07,14,02,14,14.80
2014,07,14,02,15,14.80
2014,07,14,02,16,14.80
2014,07,14,02,17,14.80
2014,07,14,02,18,14.80
2014,07,14,02,19,14.70
2014,07,14,02,20,14.70
2014,07,14,02,21,14.70
2014,07,14,02,22,14.70
2014,07,14,02,23,14.70
2014,07,14,02,24,14.70
2014,07,14,02,25,14.70
2014,07,14,02,26,14.60
2014,07,14,02,27,14.60
2014,07,14,02,28,14.60
2014,07,14,02,29,14.50
2014,07,14,02,30,14.50
2014,07,14,02,31,14.40
2014,07,14,02,32,14.40
2014,07,14,02,33,14.40
2014,07,14,02,34,14.40
2014,07,14,02,35,14.40
2014,07,14,02,36,14.40
2014,07,14,02,37,14.30
2014,07,14,02,38,14.30
2014,07,14,02,39,14.30
2014,07,14,02,40,14.30
2014,07,14,02,41,14.30
2014,07,14,02,42,14.30
2014,07,14,02,43,14.30
2014,07,14,02,44,14.30
2014,07,14,02,45,14.30
2014,07,14,02,46,14.30
2014,07,14,02,47,14.30
2014,07,14,02,48,14.30
2014,07,14,02,49,14.30
2014,07,14,02,50,14.30
2014,07,14,02,51,14.30
2014,07,14,02,52,14.30
2014,07,14,02,53,14.30
2014,07,14,02,54,14.30
2014,07,14,02,55,14.30
2014,07,14,02,56,14.30
2014,07,14,02,57,14.30
2014,07,14,02,58,14.30
2014,07,14,02,59,14.30
2014,07,14,03,00,14.30
2014,07,14,03,01,14.30
2014,07,14,03,02,14.30
2014,07,14,03,03,14.30
2014,07,14,03,04,14.30
2014,07,14,03,05,14.30
2014,07,14,03,06,14.30
2014,07,14,03,07,14.30
2014,07,14,03,08,14.30
2014,07,14,03,09,14.30
2014,07,14,03,10,14.30
2014,07,14,03,11,14.30
2014,07,14,03,12,14.30
2014,07,14,03,13,14.20
2014,07,14,03,14,14.20
2014,07,14,03,15,14.20
2014,07,14,03,16,14.20
2014,07,14,03,17,14.20
2014,07,14,03,18,14.20
2014,07,14,03,19,14.20
2014,07,14,03,20,14.20
2014,07,14,03,21,14.10
2014,07,14,03,22,14.10
2014,07,14,03,23,14.10
2014,07,14,03,24,14.10
2014,07,14,03,25,14.10
2014,07,14,03,26,14.10
2014,07,14,03,27,14.10
2014,07,14,03,28,14.10
2014,07,14,03,29,14.10
2014,07,14,03,30,14.10
2014,07,14,03,31,14.10
2014,07,14,03,32,14.10
2014,07,14,03,33,14.10
2014,07,14,03,34,14.10
2014,07,14,03,35,14.00
2014,07,14,03,36,14.00
2014,07,14,03,37,14.00
2014,07,14,03,38,14.00
2014,07,14,03,39,13.90
2014,07,14,03,40,13.90
2014,07,14,03,41,13.90
2014,07,14,03,42,13.90
2014,07,14,03,43,13.90
2014,07,14,03,44,13.80
2014,07,14,03,45,13.80
2014,07,14,03,46,13.80
2014,07,14,03,47,13.80
2014,07,14,03,48,13.80
2014,07,14,03,49,13.80
2014,07,14,03,50,13.80
2014,07,14,03,51,13.80
2014,07,14,03,52,13.70
2014,07,14,03,53,13.70
2014,07,14,03,54,13.70
2014,07,14,03,55,13.70
2014,07,14,03,56,13.70
2014,07,14,03,57,13.70
2014,07,14,03,58,13.70
2014,07,14,03,59,13.60
2014,07,14,04,00,13.60
2014,07,14,04,01,13.60
2014,07,14,04,02,13.60
2014,07,14,04,03,13.60
2014,07,14,04,04,13.60
2014,07,14,04,05,13.50
2014,07,14,04,06,13.50
2014,07,14,04,07,13.50
2014,07,14,04,08,13.50
2014,07,14,04,09,13.40
2014,07,14,04,10,13.40
2014,07,14,04,11,13.40
2014,07,14,04,12,13.40
2014,07,14,04,13,13.30
2014,07,14,04,14,13.30
2014,07,14,04,15,13.30
2014,07,14,04,16,13.30
2014,07,14,04,17,13.20
2014,07,14,04,18,13.20
2014,07,14,04,19,13.20
2014,07,14,04,20,13.10
2014,07,14,04,21,13.10
2014,07,14,04,22,13.10
2014,07,14,04,23,13.10
2014,07,14,04,24,13.00
2014,07,14,04,25,13.00
2014,07,14,04,26,13.00
2014,07,14,04,27,12.90
2014,07,14,04,28,12.90
2014,07,14,04,29,12.90
2014,07,14,04,30,12.90
2014,07,14,04,31,12.90
2014,07,14,04,32,12.90
2014,07,14,04,33,12.90
2014,07,14,04,34,12.90
2014,07,14,04,35,12.90
2014,07,14,04,36,12.90
2014,07,14,04,37,12.90
2014,07,14,04,38,12.80
2014,07,14,04,39,12.80
2014,07,14,04,40,12.80
2014,07,14,04,41,12.80
2014,07,14,04,42,12.80
2014,07,14,04,43,12.80
2014,07,14,04,44,12.80
2014,07,14,04,45,12.80
2014,07,14,04,46,12.80
2014,07,14,04,47,12.80
2014,07,14,04,48,12.80
2014,07,14,04,49,12.80
2014,07,14,04,50,12.80
2014,07,14,04,51,12.80
2014,07,14,04,52,12.80
2014,07,14,04,53,12.80
2014,07,14,04,54,12.70
2014,07,14,04,55,12.70
2014,07,14,04,56,12.70
2014,07,14,04,57,12.70
2014,07,14,04,58,12.70
2014,07,14,04,59,12.70
2014,07,14,05,00,12.70
2014,07,14,05,01,12.70
2014,07,14,05,02,12.70
2014,07,14,05,03,12.70
2014,07,14,05,04,12.70
2014,07,14,05,05,12.70
2014,07,14,05,06,12.70
2014,07,14,05,07,12.70
2014,07,14,05,08,12.70
2014,07,14,05,09,12.70
2014,07,14,05,10,12.70
2014,07,14,05,11,12.70
2014,07,14,05,12,12.70
2014,07,14,05,13,12.80
2014,07,14,05,14,12.80
2014,07,14,05,15,12.80
2014,07,14,05,16,12.80
2014,07,14,05,17,12.80
2014,07,14,05,18,12.80
2014,07,14,05,19,12.90
2014,07,14,05,20,12.90
2014,07,14,05,21,12.90
2014,07,14,05,22,12.90
2014,07,14,05,23,12.90
2014,07,14,05,24,13.00
2014,07,14,05,25,13.00
2014,07,14,05,26,13.00
2014,07,14,05,27,13.10
2014,07,14,05,28,13.10
2014,07,14,05,29,13.10
2014,07,14,05,30,13.10
2014,07,14,05,31,13.10
2014,07,14,05,32,13.10
2014,07,14,05,33,13.10
2014,07,14,05,34,13.10
2014,07,14,05,35,13.10
2014,07,14,05,36,13.10
2014,07,14,05,37,13.10
2014,07,14,05,38,13.10
2014,07,14,05,39,13.10
2014,07,14,05,40,13.10
2014,07,14,05,41,13.10
2014,07,14,05,42,13.10
2014,07,14,05,43,13.20
2014,07,14,05,44,13.20
2014,07,14,05,45,13.20
2014,07,14,05,46,13.20
2014,07,14,05,47,13.20
2014,07,14,05,48,13.20
2014,07,14,05,49,13.20
2014,07,14,05,50,13.20
2014,07,14,05,51,13.20
2014,07,14,05,52,13.20
2014,07,14,05,53,13.20
2014,07,14,05,54,13.20
2014,07,14,05,55,13.20
2014,07,14,05,56,13.20
2014,07,14,05,57,13.20
2014,07,14,05,58,13.20
2014,07,14,05,59,13.20
2014,07,14,06,00,13.20
2014,07,14,06,01,13.20
2014,07,14,06,02,13.20
2014,07,14,06,03,13.20
2014,07,14,06,04,13.20
2014,07,14,06,05,13.20
2014,07,14,06,06,13.20
2014,07,14,06,07,13.20
2014,07,14,06,08,13.20
2014,07,14,06,09,13.20
2014,07,14,06,10,13.20
2014,07,14,06,11,13.20
2014,07,14,06,12,13.20
2014,07,14,06,13,13.20
2014,07,14,06,14,13.30
2014,07,14,06,15,13.30
2014,07,14,06,16,13.30
2014,07,14,06,17,13.30
2014,07,14,06,18,13.30
2014,07,14,06,19,13.30
2014,07,14,06,20,13.40
2014,07,14,06,21,13.40
2014,07,14,06,22,13.40
2014,07,14,06,23,13.50
2014,07,14,06,24,13.60
2014,07,14,06,25,13.60
2014,07,14,06,26,13.70
2014,07,14,06,27,13.80
2014,07,14,06,28,13.90
2014,07,14,06,29,14.00
2014,07,14,06,30,14.00
2014,07,14,06,31,14.10
2014,07,14,06,32,14.20
2014,07,14,06,33,14.30
2014,07,14,06,34,14.40
2014,07,14,06,35,14.50
2014,07,14,06,36,14.60
2014,07,14,06,37,14.70
2014,07,14,06,38,14.80
2014,07,14,06,39,14.90
2014,07,14,06,40,14.90
2014,07,14,06,41,15.00
2014,07,14,06,42,15.10
2014,07,14,06,43,15.20
2014,07,14,06,44,15.30
2014,07,14,06,45,15.30
2014,07,14,06,46,15.40
2014,07,14,06,47,15.50
2014,07,14,06,48,15.60
2014,07,14,06,49,15.70
2014,07,14,06,50,15.70
2014,07,14,06,51,15.80
2014,07,14,06,52,15.90
2014,07,14,06,53,16.00
2014,07,14,06,54,16.10
2014,07,14,06,55,16.10
2014,07,14,06,56,16.20
2014,07,14,06,57,16.30
2014,07,14,06,58,16.30
2014,07,14,06,59,16.40
2014,07,14,07,00,16.40
2014,07,14,07,01,16.50
2014,07,14,07,02,16.50
2014,07,14,07,03,16.60
2014,07,14,07,04,16.60
2014,07,14,07,05,16.70
2014,07,14,07,06,16.80
2014,07,14,07,07,16.80
2014,07,14,07,08,16.90
2014,07,14,07,09,16.90
2014,07,14,07,10,17.00
2014,07,14,07,11,17.00
2014,07,14,07,12,17.10
2014,07,14,07,13,17.10
2014,07,14,07,14,17.10
2014,07,14,07,15,17.10
2014,07,14,07,16,17.20
2014,07,14,07,17,17.20
2014,07,14,07,18,17.30
2014,07,14,07,19,17.30
2014,07,14,07,20,17.30
2014,07,14,07,21,17.40
2014,07,14,07,22,17.40
2014,07,14,07,23,17.50
2014,07,14,07,24,17.50
2014,07,14,07,25,17.60
2014,07,14,07,26,17.60
2014,07,14,07,27,17.70
2014,07,14,07,28,17.70
2014,07,14,07,29,17.80
2014,07,14,07,30,17.80
2014,07,14,07,31,17.90
2014,07,14,07,32,17.90
2014,07,14,07,33,18.00
2014,07,14,07,34,18.10
2014,07,14,07,35,18.20
2014,07,14,07,36,18.20
2014,07,14,07,37,18.30
2014,07,14,07,38,18.40
2014,07,14,07,39,18.40
2014,07,14,07,40,18.50
2014,07,14,07,41,18.60
2014,07,14,07,42,18.40
2014,07,14,07,43,17.90
2014,07,14,07,44,17.50
2014,07,14,07,45,17.10
2014,07,14,07,46,16.80
2014,07,14,07,47,16.60
2014,07,14,07,48,16.30
2014,07,14,07,49,16.00
2014,07,14,07,50,15.70
2014,07,14,07,51,15.50
2014,07,14,07,52,15.40
2014,07,14,07,53,15.30
2014,07,14,07,54,15.20
2014,07,14,07,55,15.10
2014,07,14,07,56,15.10
2014,07,14,07,57,15.00
2014,07,14,07,58,14.90
2014,07,14,07,59,14.90
2014,07,14,08,00,14.80
2014,07,14,08,01,14.80
2014,07,14,08,02,14.90
2014,07,14,08,03,14.90
2014,07,14,08,04,15.00
2014,07,14,08,05,15.00
2014,07,14,08,06,15.10
2014,07,14,08,07,15.20
2014,07,14,08,08,15.30
2014,07,14,08,09,15.30
2014,07,14,08,10,15.40
2014,07,14,08,11,15.40
2014,07,14,08,12,15.40
2014,07,14,08,13,15.50
2014,07,14,08,14,15.50
2014,07,14,08,15,15.60
2014,07,14,08,16,15.60
2014,07,14,08,17,15.60
2014,07,14,08,18,15.50
2014,07,14,08,19,15.40
2014,07,14,08,20,15.40
2014,07,14,08,21,15.30
2014,07,14,08,22,15.30
2014,07,14,08,23,15.30
2014,07,14,08,24,15.20
2014,07,14,08,25,15.20
2014,07,14,08,26,15.20
2014,07,14,08,27,15.20
2014,07,14,08,28,15.30
2014,07,14,08,29,15.40
2014,07,14,08,30,15.40
2014,07,14,08,31,15.50
2014,07,14,08,32,15.50
2014,07,14,08,33,15.50
2014,07,14,08,34,15.60
2014,07,14,08,35,15.60
2014,07,14,08,36,15.60
2014,07,14,08,37,15.60
2014,07,14,08,38,15.60
2014,07,14,08,39,15.60
2014,07,14,08,40,15.70
2014,07,14,08,41,15.70
2014,07,14,08,42,15.70
2014,07,14,08,43,15.80
2014,07,14,08,44,15.80
2014,07,14,08,45,15.90
2014,07,14,08,46,15.90
2014,07,14,08,47,15.90
2014,07,14,08,48,15.90
2014,07,14,08,49,16.00
2014,07,14,08,50,16.10
2014,07,14,08,51,16.10
2014,07,14,08,52,16.20
2014,07,14,08,53,16.20
2014,07,14,08,54,16.30
2014,07,14,08,55,16.30
2014,07,14,08,56,16.30
2014,07,14,08,57,16.30
2014,07,14,08,58,16.30
2014,07,14,08,59,16.30
2014,07,14,09,00,16.30
2014,07,14,09,01,16.30
2014,07,14,09,02,16.30
2014,07,14,09,03,16.40
2014,07,14,09,04,16.40
2014,07,14,09,05,16.50
2014,07,14,09,06,16.50
2014,07,14,09,07,16.60
2014,07,14,09,08,16.70
2014,07,14,09,09,16.80
2014,07,14,09,10,16.90
2014,07,14,09,11,17.00
2014,07,14,09,12,17.10
2014,07,14,09,13,17.20
2014,07,14,09,14,17.30
2014,07,14,09,15,17.40
2014,07,14,09,16,17.50
2014,07,14,09,17,17.60
2014,07,14,09,18,17.70
2014,07,14,09,19,17.80
2014,07,14,09,20,17.90
2014,07,14,09,21,18.00
2014,07,14,09,22,18.00
2014,07,14,09,23,18.00
2014,07,14,09,24,18.10
2014,07,14,09,25,18.20
2014,07,14,09,26,18.30
2014,07,14,09,27,18.40
2014,07,14,09,28,18.50
2014,07,14,09,29,18.60
2014,07,14,09,30,18.70
2014,07,14,09,31,18.80
2014,07,14,09,32,18.90
2014,07,14,09,33,19.00
2014,07,14,09,34,19.10
2014,07,14,09,35,19.10
2014,07,14,09,36,19.00
2014,07,14,09,37,19.00
2014,07,14,09,38,19.00
2014,07,14,09,39,19.00
2014,07,14,09,40,19.00
2014,07,14,09,41,18.80
2014,07,14,09,42,18.70
2014,07,14,09,43,18.70
2014,07,14,09,44,18.60
2014,07,14,09,45,18.50
2014,07,14,09,46,18.40
2014,07,14,09,47,18.40
2014,07,14,09,48,18.40
2014,07,14,09,49,18.40
2014,07,14,09,50,18.40
2014,07,14,09,51,18.40
2014,07,14,09,52,18.40
2014,07,14,09,53,18.30
2014,07,14,09,54,18.30
2014,07,14,09,55,18.30
2014,07,14,09,56,18.20
2014,07,14,09,57,18.20
2014,07,14,09,58,18.10
2014,07,14,09,59,18.00
2014,07,14,10,00,18.00
2014,07,14,10,01,18.00
2014,07,14,10,02,17.90
2014,07,14,10,03,17.90
2014,07,14,10,04,18.00
2014,07,14,10,05,18.10
2014,07,14,10,06,18.20
2014,07,14,10,07,18.20
2014,07,14,10,08,18.30
2014,07,14,10,09,18.40
2014,07,14,10,10,18.50
2014,07,14,10,11,18.60
2014,07,14,10,12,18.70
2014,07,14,10,13,18.80
2014,07,14,10,14,18.90
2014,07,14,10,15,19.00
2014,07,14,10,16,19.00
2014,07,14,10,17,19.10
2014,07,14,10,18,19.10
2014,07,14,10,19,19.20
2014,07,14,10,20,19.20
2014,07,14,10,21,19.30
2014,07,14,10,22,19.40
2014,07,14,10,23,19.50
2014,07,14,10,24,19.60
2014,07,14,10,25,19.70
2014,07,14,10,26,19.70
2014,07,14,10,27,19.80
2014,07,14,10,28,19.80
2014,07,14,10,29,19.80
2014,07,14,10,30,19.70
2014,07,14,10,31,19.70
2014,07,14,10,32,19.70
2014,07,14,10,33,19.60
2014,07,14,10,34,19.70
2014,07,14,10,35,19.70
2014,07,14,10,36,19.70
2014,07,14,10,37,19.70
2014,07,14,10,38,19.70
2014,07,14,10,39,19.70
2014,07,14,10,40,19.70
2014,07,14,10,41,19.70
2014,07,14,10,42,19.80
2014,07,14,10,43,19.90
2014,07,14,10,44,19.90
2014,07,14,10,45,19.90
2014,07,14,10,46,20.00
2014,07,14,10,47,20.10
2014,07,14,10,48,20.10
2014,07,14,10,49,20.20
2014,07,14,10,50,20.30
2014,07,14,10,51,20.30
2014,07,14,10,52,20.40
2014,07,14,10,53,20.40
2014,07,14,10,54,20.50
2014,07,14,10,55,20.50
2014,07,14,10,56,20.60
2014,07,14,10,57,20.60
2014,07,14,10,58,20.60
2014,07,14,10,59,20.60
2014,07,14,11,00,20.70
2014,07,14,11,01,20.80
2014,07,14,11,02,20.80
2014,07,14,11,03,20.80
2014,07,14,11,04,20.80
2014,07,14,11,05,20.80
2014,07,14,11,06,20.80
2014,07,14,11,07,20.80
2014,07,14,11,08,20.80
2014,07,14,11,09,20.80
2014,07,14,11,10,20.80
2014,07,14,11,11,20.80
2014,07,14,11,12,20.80
2014,07,14,11,13,20.90
2014,07,14,11,14,20.90
2014,07,14,11,15,20.80
2014,07,14,11,16,20.70
2014,07,14,11,17,20.60
2014,07,14,11,18,20.60
2014,07,14,11,19,20.50
2014,07,14,11,20,20.50
2014,07,14,11,21,20.40
2014,07,14,11,22,20.40
2014,07,14,11,23,20.40
2014,07,14,11,24,20.50
2014,07,14,11,25,20.50
2014,07,14,11,26,20.50
2014,07,14,11,27,20.60
2014,07,14,11,28,20.60
2014,07,14,11,29,20.60
2014,07,14,11,30,20.60
2014,07,14,11,31,20.70
2014,07,14,11,32,20.70
2014,07,14,11,33,20.70
2014,07,14,11,34,20.80
2014,07,14,11,35,20.80
2014,07,14,11,36,20.80
2014,07,14,11,37,20.80
2014,07,14,11,38,20.80
2014,07,14,11,39,20.70
2014,07,14,11,40,20.70
2014,07,14,11,41,20.70
2014,07,14,11,42,20.60
2014,07,14,11,43,20.60
2014,07,14,11,44,20.60
2014,07,14,11,45,20.60
2014,07,14,11,46,20.60
2014,07,14,11,47,20.50
2014,07,14,11,48,20.50
2014,07,14,11,49,20.40
2014,07,14,11,50,20.30
2014,07,14,11,51,20.10
2014,07,14,11,52,19.80
2014,07,14,11,53,19.70
2014,07,14,11,54,19.50
2014,07,14,11,55,19.30
2014,07,14,11,56,19.20
2014,07,14,11,57,19.10
2014,07,14,11,58,19.10
2014,07,14,11,59,19.10
2014,07,14,12,00,19.00
2014,07,14,12,01,18.80
2014,07,14,12,02,18.60
2014,07,14,12,03,18.50
2014,07,14,12,04,18.40
2014,07,14,12,05,18.40
2014,07,14,12,06,18.40
2014,07,14,12,07,18.40
2014,07,14,12,08,18.50
2014,07,14,12,09,18.60
2014,07,14,12,10,18.60
2014,07,14,12,11,18.70
2014,07,14,12,12,18.80
2014,07,14,12,13,18.90
2014,07,14,12,14,19.10
2014,07,14,12,15,19.20
2014,07,14,12,16,19.30
2014,07,14,12,17,19.50
2014,07,14,12,18,19.60
2014,07,14,12,19,19.70
2014,07,14,12,20,19.70
2014,07,14,12,21,19.70
2014,07,14,12,22,19.70
2014,07,14,12,23,19.60
2014,07,14,12,24,19.40
2014,07,14,12,25,19.20
2014,07,14,12,26,19.00
2014,07,14,12,27,19.00
2014,07,14,12,28,19.00
2014,07,14,12,29,19.10
2014,07,14,12,30,19.20
2014,07,14,12,31,19.30
2014,07,14,12,32,19.40
2014,07,14,12,33,19.40
2014,07,14,12,34,19.50
2014,07,14,12,35,19.60
2014,07,14,12,36,19.70
2014,07,14,12,37,19.80
2014,07,14,12,38,19.80
2014,07,14,12,39,20.00
2014,07,14,12,40,20.00
2014,07,14,12,41,20.10
2014,07,14,12,42,20.20
2014,07,14,12,43,20.30
2014,07,14,12,44,20.30
2014,07,14,12,45,20.40
2014,07,14,12,46,20.40
2014,07,14,12,47,20.50
2014,07,14,12,48,20.60
2014,07,14,12,49,20.70
2014,07,14,12,50,20.70
2014,07,14,12,51,20.80
2014,07,14,12,52,20.80
2014,07,14,12,53,20.80
2014,07,14,12,54,20.80
2014,07,14,12,55,20.80
2014,07,14,12,56,20.80
2014,07,14,12,57,20.80
2014,07,14,12,58,20.80
2014,07,14,12,59,20.80
2014,07,14,13,00,20.70
2014,07,14,13,01,20.60
2014,07,14,13,02,20.40
2014,07,14,13,03,20.20
2014,07,14,13,04,19.90
2014,07,14,13,05,19.70
2014,07,14,13,06,19.50
2014,07,14,13,07,19.50
2014,07,14,13,08,19.50
2014,07,14,13,09,19.50
2014,07,14,13,10,19.40
2014,07,14,13,11,19.40
2014,07,14,13,12,19.40
2014,07,14,13,13,19.40
2014,07,14,13,14,19.40
2014,07,14,13,15,19.50
2014,07,14,13,16,19.40
2014,07,14,13,17,19.40
2014,07,14,13,18,19.30
2014,07,14,13,19,19.30
2014,07,14,13,20,19.30
2014,07,14,13,21,19.30
2014,07,14,13,22,19.30
2014,07,14,13,23,19.30
2014,07,14,13,24,19.30
2014,07,14,13,25,19.30
2014,07,14,13,26,19.40
2014,07,14,13,27,19.40
2014,07,14,13,28,19.50
2014,07,14,13,29,19.50
2014,07,14,13,30,19.60
2014,07,14,13,31,19.70
2014,07,14,13,32,19.80
2014,07,14,13,33,19.80
2014,07,14,13,34,19.90
2014,07,14,13,35,20.00
2014,07,14,13,36,20.00
2014,07,14,13,37,20.10
2014,07,14,13,38,20.10
2014,07,14,13,39,20.20
2014,07,14,13,40,20.20
2014,07,14,13,41,20.20
2014,07,14,13,42,20.20
2014,07,14,13,43,20.30
2014,07,14,13,44,20.40
2014,07,14,13,45,20.60
2014,07,14,13,46,20.70
2014,07,14,13,47,20.80
2014,07,14,13,48,20.90
2014,07,14,13,49,21.00
2014,07,14,13,50,21.10
2014,07,14,13,51,21.20
2014,07,14,13,52,21.20
2014,07,14,13,53,21.30
2014,07,14,13,54,21.40
2014,07,14,13,55,21.30
2014,07,14,13,56,21.20
2014,07,14,13,57,21.00
2014,07,14,13,58,20.90
2014,07,14,13,59,20.80
2014,07,14,14,00,20.80
2014,07,14,14,01,20.80
2014,07,14,14,02,20.80
2014,07,14,14,03,20.90
2014,07,14,14,04,20.90
2014,07,14,14,05,21.00
2014,07,14,14,06,21.10
2014,07,14,14,07,21.20
2014,07,14,14,08,21.20
2014,07,14,14,09,21.30
2014,07,14,14,10,21.20
2014,07,14,14,11,21.20
2014,07,14,14,12,21.30
2014,07,14,14,13,21.30
2014,07,14,14,14,21.50
2014,07,14,14,15,21.70
2014,07,14,14,16,21.80
2014,07,14,14,17,22.00
2014,07,14,14,18,22.20
2014,07,14,14,19,22.30
2014,07,14,14,20,22.50
2014,07,14,14,21,22.70
2014,07,14,14,22,22.90
2014,07,14,14,23,23.00
2014,07,14,14,24,23.20
2014,07,14,14,25,23.30
2014,07,14,14,26,23.40
2014,07,14,14,27,23.50
2014,07,14,14,28,23.60
2014,07,14,14,29,23.60
2014,07,14,14,30,23.60
2014,07,14,14,31,23.70
2014,07,14,14,32,23.60
2014,07,14,14,33,23.60
2014,07,14,14,34,23.60
2014,07,14,14,35,23.50
2014,07,14,14,36,23.50
2014,07,14,14,37,23.50
2014,07,14,14,38,23.50
2014,07,14,14,39,23.50
2014,07,14,14,40,23.50
2014,07,14,14,41,23.50
2014,07,14,14,42,23.60
2014,07,14,14,43,23.60
2014,07,14,14,44,23.60
2014,07,14,14,45,23.60
2014,07,14,14,46,23.60
2014,07,14,14,47,23.60
2014,07,14,14,48,23.50
2014,07,14,14,49,23.50
2014,07,14,14,50,23.50
2014,07,14,14,51,23.40
2014,07,14,14,52,23.40
2014,07,14,14,53,23.50
2014,07,14,14,54,23.50
2014,07,14,14,55,23.60
2014,07,14,14,56,23.60
2014,07,14,14,57,23.60
2014,07,14,14,58,23.60
2014,07,14,14,59,23.60
2014,07,14,15,00,23.50
2014,07,14,15,01,23.50
2014,07,14,15,02,23.40
2014,07,14,15,03,23.30
2014,07,14,15,04,23.00
2014,07,14,15,05,22.80
2014,07,14,15,06,22.50
2014,07,14,15,07,22.30
2014,07,14,15,08,22.10
2014,07,14,15,09,22.10
2014,07,14,15,10,22.00
2014,07,14,15,11,22.00
2014,07,14,15,12,21.90
2014,07,14,15,13,21.80
2014,07,14,15,14,21.70
2014,07,14,15,15,21.60
2014,07,14,15,16,21.50
2014,07,14,15,17,21.40
2014,07,14,15,18,21.30
2014,07,14,15,19,21.20
2014,07,14,15,20,21.10
2014,07,14,15,21,21.00
2014,07,14,15,22,21.00
2014,07,14,15,23,20.90
2014,07,14,15,24,20.90
2014,07,14,15,25,20.90
2014,07,14,15,26,20.90
2014,07,14,15,27,20.90
2014,07,14,15,28,20.90
2014,07,14,15,29,20.90
2014,07,14,15,30,20.90
2014,07,14,15,31,20.90
2014,07,14,15,32,20.90
2014,07,14,15,33,20.90
2014,07,14,15,34,20.90
2014,07,14,15,35,20.90
2014,07,14,15,36,21.00
2014,07,14,15,37,21.10
2014,07,14,15,38,21.10
2014,07,14,15,39,21.20
2014,07,14,15,40,21.20
2014,07,14,15,41,21.30
2014,07,14,15,42,21.30
2014,07,14,15,43,21.30
2014,07,14,15,44,21.40
2014,07,14,15,45,21.50
2014,07,14,15,46,21.50
2014,07,14,15,47,21.60
2014,07,14,15,48,21.70
2014,07,14,15,49,21.70
2014,07,14,15,50,21.80
2014,07,14,15,51,21.80
2014,07,14,15,52,21.80
2014,07,14,15,53,21.80
2014,07,14,15,54,21.70
2014,07,14,15,55,21.70
2014,07,14,15,56,21.70
2014,07,14,15,57,21.70
2014,07,14,15,58,21.70
2014,07,14,15,59,21.70
2014,07,14,16,00,21.80
2014,07,14,16,01,21.80
2014,07,14,16,02,21.90
2014,07,14,16,03,21.90
2014,07,14,16,04,21.90
2014,07,14,16,05,21.90
2014,07,14,16,06,21.80
2014,07,14,16,07,21.80
2014,07,14,16,08,21.80
2014,07,14,16,09,21.80
2014,07,14,16,10,21.70
2014,07,14,16,11,21.60
2014,07,14,16,12,21.50
2014,07,14,16,13,21.40
2014,07,14,16,14,21.40
2014,07,14,16,15,21.30
2014,07,14,16,16,21.10
2014,07,14,16,17,21.00
2014,07,14,16,18,20.90
2014,07,14,16,19,20.90
2014,07,14,16,20,20.90
2014,07,14,16,21,21.00
2014,07,14,16,22,21.10
2014,07,14,16,23,21.20
2014,07,14,16,24,21.20
2014,07,14,16,25,21.20
2014,07,14,16,26,21.10
2014,07,14,16,27,21.00
2014,07,14,16,28,21.00
2014,07,14,16,29,21.00
2014,07,14,16,30,20.90
2014,07,14,16,31,20.90
2014,07,14,16,32,20.90
2014,07,14,16,33,20.80
2014,07,14,16,34,20.80
2014,07,14,16,35,20.80
2014,07,14,16,36,20.80
2014,07,14,16,37,20.80
2014,07,14,16,38,20.80
2014,07,14,16,39,20.90
2014,07,14,16,40,21.00
2014,07,14,16,41,21.00
2014,07,14,16,42,21.10
2014,07,14,16,43,21.20
2014,07,14,16,44,21.20
2014,07,14,16,45,21.20
2014,07,14,16,46,21.20
2014,07,14,16,47,21.20
2014,07,14,16,48,21.20
2014,07,14,16,49,21.20
2014,07,14,16,50,21.10
2014,07,14,16,51,21.00
2014,07,14,16,52,20.90
2014,07,14,16,53,20.80
2014,07,14,16,54,20.60
2014,07,14,16,55,20.50
2014,07,14,16,56,20.50
2014,07,14,16,57,20.40
2014,07,14,16,58,20.40
2014,07,14,16,59,20.30
2014,07,14,17,00,20.20
2014,07,14,17,01,20.20
2014,07,14,17,02,20.10
2014,07,14,17,03,20.10
2014,07,14,17,04,20.10
2014,07,14,17,05,20.20
2014,07,14,17,06,20.30
2014,07,14,17,07,20.40
2014,07,14,17,08,20.50
2014,07,14,17,09,20.60
2014,07,14,17,10,20.60
2014,07,14,17,11,20.60
2014,07,14,17,12,20.50
2014,07,14,17,13,20.50
2014,07,14,17,14,20.50
2014,07,14,17,15,20.50
2014,07,14,17,16,20.50
2014,07,14,17,17,20.40
2014,07,14,17,18,20.40
2014,07,14,17,19,20.30